RH
12 12 19 24 30 34 35 34 33 36 36 36 36 36 38 39 41 42 38 38 36 36 36 31 29 28 25 21 20 19 19 17 13 11 9 8 8 7 7 7 8 10 15 17 17 17 17 11 8
11 11 17 23 31 33 35 27 31 32 33 36 37 36 36 35 35 38 39 38 36 36 33 26 19 19 18 14 13 16 15 13 9 8 7 7 7 7 7 7 8 8 11 15 16 18 16 10 7
14 20 26 30 31 34 34 28 31 33 35 35 35 34 33 31 31 32 27 27 29 29 24 17 14 14 13 11 10 10 9 9 7 7 7 7 7 7 7 8 8 8 9 10 13 16 17 12 8
21 29 33 33 33 34 27 28 32 32 37 37 35 34 33 26 19 19 22 24 24 24 24 21 12 13 14 10 9 8 8 7 7 7 7 8 8 8 8 9 10 9 9 8 9 11 12 11 9
16 25 27 27 33 27 26 28 31 33 34 33 30 30 29 29 22 18 20 21 21 23 23 14 11 11 13 9 8 8 8 7 7 7 7 8 8 9 9 15 17 12 10 9 9 9 10 9 10
20 21 21 21 29 28 26 28 28 29 33 32 30 30 34 33 27 20 19 20 23 23 19 13 12 11 10 9 9 9 8 8 8 8 8 8 12 11 11 17 16 16 15 11 12 11 9 13 12
16 22 21 18 21 22 25 28 30 31 31 31 29 35 36 33 28 20 20 22 23 23 20 14 14 14 14 12 13 12 11 11 11 11 11 10 10 14 13 17 15 17 18 18 18 18 17 19 19
14 18 15 15 21 22 25 29 27 26 26 27 29 32 31 28 22 21 22 23 24 24 19 17 16 15 14 15 14 14 13 13 14 13 12 13 12 10 12 13 18 18 18 18 17 17 18 16 13
15 17 17 17 21 22 25 25 24 24 25 25 24 22 17 18 21 22 23 25 26 25 20 19 16 16 16 16 15 15 14 15 16 15 14 14 13 12 11 12 17 18 17 18 17 18 15 12 12
15 18 17 17 20 23 26 25 24 24 24 25 20 18 18 19 21 23 24 26 27 24 22 20 19 18 19 18 17 16 17 17 17 15 15 15 15 14 13 12 12 12 14 14 14 13 13 12 11
12 16 15 15 17 22 24 25 25 23 25 22 17 18 20 24 27 28 29 28 25 27 25 23 21 20 21 22 21 21 19 18 17 17 18 17 18 17 14 11 9 10 13 14 14 15 14 12 9
11 13 15 17 20 21 23 24 25 23 17 13 19 22 24 26 27 28 28 27 30 36 36 30 25 25 26 28 27 25 21 18 18 18 18 19 18 17 13 11 9 9 12 14 16 15 14 11 10
10 11 15 17 18 20 22 22 21 14 17 20 24 26 26 27 29 30 30 31 35 41 46 35 30 30 31 32 32 30 25 20 19 18 17 17 17 16 15 14 12 10 13 16 16 16 13 12 12
10 11 10 10 12 16 16 15 20 24 23 25 23 24 27 30 32 32 32 36 40 43 48 47 44 38 38 38 41 39 35 29 21 17 16 17 18 17 17 17 16 12 13 16 16 16 16 15 15
11 11 10 15 14 18 19 21 28 26 27 28 27 28 32 34 34 33 35 41 46 50 53 53 52 47 46 47 44 39 37 32 19 18 19 20 21 21 21 21 19 17 14 15 16 18 19 19 19
16 16 18 20 19 20 22 25 32 33 29 28 30 34 37 38 37 36 42 47 53 55 59 59 62 56 49 43 39 39 33 27 20 22 23 24 25 25 25 23 21 20 18 17 18 20 21 21 20
21 20 20 21 21 21 21 26 28 31 30 31 35 37 41 44 43 46 45 50 56 58 62 63 59 54 50 42 36 35 35 27 21 21 24 25 27 27 28 29 28 27 25 22 21 19 21 20 19
18 17 16 16 16 17 21 24 26 30 31 33 35 40 43 45 43 44 51 56 61 61 59 62 61 59 48 39 39 39 35 24 19 23 26 29 31 33 32 29 27 25 22 20 20 18 16 17 18
17 17 17 16 18 18 20 25 31 35 35 35 39 42 41 43 47 50 57 62 64 65 67 69 63 51 52 44 37 36 28 22 24 27 32 34 31 28 27 25 24 23 23 23 22 20 18 16 19
16 17 18 18 19 20 22 32 32 29 29 32 36 42 48 52 54 58 64 66 63 66 68 68 57 48 46 40 36 34 25 25 29 30 29 26 24 22 21 23 26 27 25 23 22 22 22 20 21
18 21 21 21 24 24 32 44 51 49 41 43 49 52 55 56 58 68 71 67 65 67 65 57 52 47 43 38 39 32 26 27 26 21 20 20 23 25 24 25 23 23 24 26 28 29 28 25 25
21 20 21 24 28 36 37 51 62 72 62 63 57 59 63 64 69 71 71 64 66 62 58 57 48 44 40 39 37 29 29 28 24 23 25 26 23 18 14 18 25 31 38 46 52 56 56 54 50
26 22 24 27 30 43 57 74 77 75 76 69 62 63 62 65 69 73 66 67 62 61 61 52 46 40 41 37 33 30 27 25 25 27 22 16 15 18 21 28 38 46 55 65 69 75 77 79 83
26 26 25 30 50 72 66 70 88 87 76 69 67 66 68 71 73 67 63 65 64 66 57 47 42 41 37 36 29 26 26 26 25 18 17 18 21 25 40 56 63 68 67 70 73 79 85 88 90
26 38 51 57 74 77 71 87 98 83 72 66 68 74 72 70 67 57 60 63 64 61 50 43 42 38 34 27 26 27 26 19 17 19 20 26 40 53 64 64 73 76 77 78 82 79 80 86 83
33 44 66 77 80 71 77 97 95 77 63 59 60 65 62 57 55 55 58 63 62 53 46 45 39 29 26 27 27 24 19 17 20 24 33 45 52 61 73 76 82 86 89 86 94 95 90 80 71
40 64 70 75 73 80 92 98 91 73 62 56 61 56 56 53 52 52 60 60 55 47 45 33 26 27 27 26 22 22 19 20 28 36 43 53 66 71 78 87 90 91 97 97 96 93 92 92 87
55 65 81 80 84 84 83 95 98 85 57 52 47 48 46 48 52 54 54 50 45 41 31 26 27 27 25 24 23 21 23 30 35 40 51 56 69 82 88 93 93 94 96 97 97 97 97 97 91
61 88 90 84 90 92 92 91 95 81 71 44 41 40 40 45 47 46 42 42 38 31 26 27 26 24 25 24 23 25 31 34 39 45 56 66 78 86 93 96 96 96 97 97 97 97 97 97 90
61 79 85 91 94 93 93 95 89 77 74 48 37 37 40 41 41 39 39 36 32 28 27 25 24 25 22 23 23 33 33 36 47 54 68 78 77 86 93 95 96 96 97 95 97 97 89 91 95